Wind_Speed
21 23 23 23 22 21 19 18 17 15 13 12 11 10 7 5 5 5 7 8 9 6 1 5 10 16 13 6 5 6 7 9 10 8 9 10 7 8 6 7 7 9 7 13 17
17 21 24 26 27 27 26 25 24 22 20 17 15 14 12 10 7 7 10 12 10 6 1 5 6 7 4 5 4 6 11 9 7 8 9 7 5 10 6 6 1 3 13 14 18
15 16 19 23 26 28 29 30 29 28 26 25 22 20 17 14 11 12 13 15 13 9 4 3 5 5 4 3 5 11 15 9 10 11 9 10 9 9 4 2 2 6 10 13 15
15 16 17 18 21 24 27 29 30 30 30 30 28 25 23 18 8 17 16 17 16 12 7 2 5 6 4 7 8 14 11 11 10 11 10 11 11 9 8 9 9 8 9 9 15
18 17 17 18 18 19 21 24 26 28 29 29 28 27 27 25 22 16 18 20 18 13 10 4 3 1 4 8 11 12 11 12 11 11 11 11 10 13 12 6 7 8 10 10 14
20 20 19 19 18 18 18 19 21 23 25 27 27 27 27 27 22 26 16 20 18 14 11 7 1 1 4 8 2 12 10 11 12 13 12 11 11 7 10 9 7 8 9 9 10
21 22 22 21 20 19 18 18 18 19 21 23 24 25 28 25 27 24 23 17 20 16 13 10 7 1 4 9 12 12 12 11 10 8 9 12 12 6 9 12 9 8 10 9 8
23 23 23 24 23 21 19 18 18 18 19 20 22 24 28 21 28 26 26 22 22 20 18 15 11 4 7 9 13 15 15 19 9 8 6 3 7 7 7 11 10 8 8 8 8
24 24 24 24 24 23 22 19 18 18 18 19 20 22 21 26 26 25 28 25 21 23 22 19 12 7 9 15 17 11 6 13 10 6 5 3 7 8 11 8 7 8 7 7 7
27 25 25 25 25 24 23 22 20 19 19 19 21 18 21 19 22 27 28 28 20 23 23 21 14 12 18 26 17 27 21 11 11 6 3 6 7 10 11 9 8 9 6 6 6
28 28 26 26 24 25 23 22 20 20 24 22 8 18 6 14 24 30 29 32 22 22 24 22 20 23 23 13 9 10 3 10 7 5 5 3 7 8 10 9 9 10 10 9 8
33 30 27 27 25 23 24 21 27 22 22 20 25 20 17 16 15 24 29 32 28 29 26 23 27 23 20 16 10 5 8 8 5 3 4 6 6 7 11 10 9 11 12 12 11
33 34 30 27 26 24 23 29 23 25 29 26 26 30 26 21 20 25 33 33 31 31 32 31 29 22 21 15 14 15 14 10 5 4 7 5 10 12 11 11 12 11 12 13 14
33 31 32 29 27 24 23 25 23 21 16 24 25 28 29 24 27 23 32 35 29 36 34 32 26 25 19 20 19 19 13 4 4 8 7 8 1 14 14 14 14 14 14 15 16
38 31 28 32 28 25 31 22 20 14 7 12 28 21 27 38 17 33 30 35 33 33 36 37 31 26 29 27 22 14 11 12 8 9 9 13 11 17 16 16 16 16 16 16 16
36 34 27 32 30 27 24 20 21 14 21 12 21 22 28 36 28 25 32 36 32 30 36 34 31 27 29 26 24 24 8 11 11 13 18 14 15 17 18 15 16 17 17 18 18
34 32 29 29 29 33 27 23 16 24 27 20 23 22 33 35 36 32 39 42 41 35 39 38 35 32 27 29 27 23 18 18 14 14 11 20 14 7 12 11 14 18 20 20 20
24 26 26 29 33 30 30 32 24 23 33 12 25 24 35 35 41 37 38 44 41 38 36 37 40 33 32 33 30 30 28 22 15 12 14 11 11 10 11 8 10 15 18 21 21
22 20 26 30 34 34 38 38 43 26 32 19 22 28 31 36 41 38 41 47 46 42 34 37 40 34 32 32 34 29 35 29 28 20 12 20 16 16 13 13 13 13 17 22 23
21 19 23 29 35 37 40 50 34 31 14 37 25 28 32 38 43 46 43 44 45 43 37 26 32 33 32 27 36 36 31 32 33 15 13 12 19 18 19 16 15 15 21 22 24
14 8 13 21 30 36 48 47 38 26 24 27 36 27 30 35 42 46 41 36 45 44 37 30 29 34 31 38 36 38 32 38 29 25 13 12 17 17 17 15 10 13 23 24 26
9 11 14 18 24 33 40 37 32 35 20 28 23 33 27 32 39 40 44 43 40 44 46 39 20 30 35 31 32 34 32 37 31 25 25 17 7 23 17 14 10 7 19 22 23
6 12 14 11 25 30 30 33 33 38 30 27 22 25 25 30 34 39 36 37 30 46 47 41 31 30 30 32 33 36 36 32 34 27 22 19 14 12 13 13 11 10 15 22 24
1 7 11 15 20 20 29 32 37 35 35 30 27 22 26 26 26 32 38 39 41 34 43 43 36 32 32 34 36 40 38 38 33 34 25 26 19 14 12 11 11 12 16 21 26
4 9 6 10 13 20 19 18 34 37 33 31 28 27 29 27 27 27 34 33 34 31 44 44 47 35 32 30 33 35 41 37 42 37 34 28 21 20 11 13 13 13 16 22 28
5 10 6 11 9 16 12 18 21 34 32 31 28 28 26 27 30 25 22 37 37 33 37 42 41 41 35 33 30 37 40 44 41 39 35 30 24 13 17 14 17 11 15 17 18
5 8 7 8 11 11 21 20 17 21 31 32 25 26 26 23 13 19 16 26 35 37 36 38 39 40 39 35 31 32 39 39 44 40 37 36 29 23 17 16 19 21 17 22 19
Wind_Direction
236 236 236 239 240 240 239 239 239 236 231 227 225 230 231 222 220 202 195 216 201 210 270 26 30 29 63 354 343 358 16 49 37 66 103 96 109 130 123 118 144 191 176 168 161
239 240 240 239 238 240 241 242 244 243 242 238 235 237 237 238 232 225 218 215 214 205 204 41 352 327 18 14 30 354 67 59 58 99 97 113 120 116 130 134 171 165 149 169 163
246 240 242 242 242 241 241 242 244 245 245 244 240 241 242 242 241 245 232 214 216 202 181 73 48 1 40 71 28 70 70 76 86 100 102 97 102 104 117 212 191 134 152 161 157
258 254 245 243 244 243 242 242 243 245 246 246 245 242 242 239 232 234 230 216 217 200 193 152 349 347 96 110 105 84 77 81 89 96 94 99 92 91 115 136 152 141 144 154 158
261 258 257 252 246 245 244 244 243 243 246 246 245 244 241 240 232 243 224 219 218 203 199 202 319 21 101 130 112 95 88 83 98 110 108 100 100 92 93 103 143 142 142 151 152
260 261 258 258 256 250 248 246 245 242 242 244 244 242 239 236 231 231 224 222 221 206 203 210 243 248 125 161 142 120 111 96 93 102 95 112 96 60 81 71 116 127 133 141 153
258 258 258 258 257 256 253 249 246 246 242 242 242 240 236 223 231 222 221 217 218 204 200 230 236 201 169 151 136 139 130 115 93 89 110 102 90 106 79 81 94 131 143 151 149
260 255 256 256 255 256 255 253 248 245 244 242 242 243 239 234 226 218 216 217 213 203 201 216 199 210 184 175 166 172 177 133 120 99 85 129 107 137 115 90 90 106 115 127 143
259 258 254 253 254 253 254 252 252 247 243 242 241 244 245 236 222 213 210 210 210 201 208 205 198 203 205 181 189 205 344 142 110 119 81 108 111 161 157 155 108 102 102 106 112
264 259 255 252 250 251 251 252 252 251 244 239 237 242 234 242 220 209 205 201 207 201 209 209 209 201 194 204 210 141 223 127 129 149 139 104 113 151 162 167 170 161 143 129 141
264 261 258 253 249 247 248 250 257 265 248 234 270 245 256 206 211 204 202 199 199 201 204 207 206 209 204 204 197 216 129 132 139 127 180 141 135 167 164 172 179 177 176 171 172
262 260 258 255 250 244 241 239 241 237 251 237 217 234 215 213 217 200 197 194 195 201 198 205 210 205 208 191 225 197 188 157 130 143 218 160 182 181 184 177 189 185 186 178 176
268 259 255 255 250 245 236 238 241 246 256 249 238 229 215 215 203 201 196 193 199 200 201 205 207 204 209 201 206 202 200 157 112 181 205 206 188 186 195 187 185 186 187 181 186
279 265 254 248 249 241 238 229 235 244 264 253 230 228 214 212 223 195 203 195 201 205 202 211 210 208 209 208 206 211 211 163 211 230 246 179 271 182 187 190 193 190 188 185 187
281 275 257 243 241 231 232 224 220 217 261 253 210 211 207 202 206 198 203 195 202 203 204 213 212 211 209 209 206 226 174 206 232 244 269 201 240 164 181 194 201 199 197 191 192
281 277 262 244 232 234 229 211 200 198 227 202 190 189 187 199 198 203 195 196 203 209 211 215 213 215 213 209 211 218 218 229 240 240 247 239 239 180 181 195 200 202 202 198 195
282 273 264 242 222 218 212 191 197 224 215 218 205 200 194 197 195 198 192 193 200 202 209 212 215 216 211 214 213 220 219 221 223 227 244 205 216 220 171 185 199 203 200 200 197
282 267 251 235 220 211 199 188 220 222 207 216 208 203 199 197 196 197 195 198 200 202 203 204 214 209 214 218 211 212 213 221 209 221 186 201 220 201 169 173 186 202 206 201 200
290 261 238 225 217 204 195 205 212 207 207 204 198 199 202 202 198 196 201 201 201 199 204 206 215 214 212 212 211 209 218 223 242 230 256 187 212 223 200 210 206 205 204 207 205
293 264 240 225 219 204 205 215 216 210 206 210 209 206 202 200 198 200 202 205 204 203 200 207 211 212 210 213 217 218 213 222 239 261 239 186 180 215 204 211 211 217 208 206 206
288 288 246 227 219 208 215 216 215 208 222 215 217 214 213 204 203 205 208 207 204 205 204 211 211 210 205 208 207 208 221 214 227 231 233 243 193 199 185 193 200 231 207 204 201
287 247 230 244 221 219 221 214 215 219 223 214 223 220 213 209 206 212 209 208 206 203 205 206 212 218 205 209 208 208 211 205 220 213 248 266 303 184 189 207 199 195 191 194 194
273 243 252 238 222 219 225 223 217 221 217 213 223 219 218 214 212 212 213 208 207 205 205 201 215 213 199 205 209 212 209 208 216 229 223 240 148 169 184 192 197 204 191 190 193
219 265 222 240 219 229 221 224 219 216 220 210 220 217 214 212 214 212 212 206 207 207 206 204 210 220 210 207 204 211 210 214 215 219 228 214 236 167 192 207 208 198 201 194 199
200 258 309 206 218 225 219 225 215 212 214 212 214 213 214 219 210 211 207 204 205 206 205 205 214 215 226 215 210 210 215 216 219 223 224 227 217 230 227 223 215 209 201 205 210
309 311 295 256 272 220 225 211 211 212 204 207 212 209 204 210 212 206 208 204 202 202 201 205 214 217 223 226 209 215 216 220 221 223 230 235 232 238 224 225 218 207 220 232 227
304 238 254 243 233 230 221 219 213 200 212 207 210 209 207 207 226 204 209 210 207 202 198 202 206 209 220 220 227 236 221 218 223 224 227 232 232 237 237 223 226 228 236 239 247
Height
3175 3176 3176 3177 3178 3179 3180 3181 3181 3182 3184 3186 3186 3187 3189 3189 3188 3188 3189 3189 3190 3190 3191 3191 3190 3187 3188 3188 3189 3188 3184 3186 3186 3185 3189 3189 3189 3188 3187 3184 3184 3184 3185 3188 3189
3172 3173 3173 3174 3175 3176 3177 3178 3179 3180 3181 3183 3185 3186 3187 3188 3188 3188 3189 3188 3189 3191 3191 3191 3193 3193 3192 3192 3190 3187 3185 3189 3189 3189 3190 3190 3190 3190 3191 3188 3185 3185 3186 3189 3191
3169 3169 3169 3170 3171 3172 3173 3174 3175 3176 3178 3180 3182 3183 3185 3187 3188 3189 3187 3188 3188 3190 3191 3192 3192 3193 3192 3193 3191 3188 3189 3192 3192 3192 3192 3191 3191 3192 3192 3190 3186 3186 3187 3189 3191
3166 3166 3166 3166 3166 3167 3169 3170 3171 3172 3173 3175 3178 3180 3182 3185 3190 3184 3186 3187 3188 3190 3192 3192 3194 3194 3194 3194 3193 3193 3194 3194 3193 3193 3193 3193 3193 3193 3192 3191 3187 3187 3189 3190 3192
3162 3162 3162 3162 3162 3163 3164 3165 3166 3168 3168 3170 3172 3175 3178 3180 3183 3182 3183 3185 3187 3190 3191 3192 3196 3196 3195 3196 3194 3196 3197 3196 3195 3195 3195 3195 3194 3192 3189 3187 3187 3188 3190 3192 3193
3158 3158 3158 3158 3159 3159 3159 3160 3161 3163 3164 3165 3167 3169 3172 3175 3177 3178 3181 3184 3186 3189 3191 3192 3196 3197 3197 3196 3195 3196 3198 3197 3197 3196 3197 3196 3195 3195 3192 3189 3189 3189 3191 3193 3194
3152 3153 3153 3154 3154 3155 3156 3156 3157 3158 3160 3161 3162 3163 3165 3171 3171 3175 3178 3181 3184 3188 3190 3193 3194 3196 3197 3197 3196 3197 3197 3197 3198 3199 3199 3198 3200 3197 3194 3193 3193 3193 3194 3195 3197
3147 3147 3148 3149 3150 3151 3152 3153 3153 3154 3155 3157 3157 3158 3158 3164 3167 3171 3175 3178 3182 3186 3188 3191 3192 3194 3194 3196 3196 3193 3189 3191 3197 3199 3199 3198 3201 3199 3196 3195 3196 3196 3196 3196 3197
3141 3141 3142 3143 3145 3146 3147 3149 3149 3150 3151 3153 3154 3154 3156 3157 3162 3168 3172 3176 3181 3184 3187 3189 3191 3193 3195 3195 3192 3190 3191 3191 3196 3199 3200 3199 3202 3201 3200 3201 3198 3198 3198 3198 3198
3134 3135 3136 3138 3139 3141 3143 3144 3145 3147 3147 3148 3150 3154 3154 3153 3158 3163 3168 3173 3179 3183 3185 3188 3191 3193 3192 3186 3183 3189 3188 3189 3193 3200 3200 3199 3201 3201 3202 3204 3203 3202 3201 3201 3202
3128 3129 3131 3131 3134 3136 3139 3142 3145 3144 3141 3143 3149 3146 3150 3152 3152 3158 3164 3170 3176 3181 3183 3186 3190 3188 3186 3191 3193 3188 3188 3189 3193 3198 3199 3198 3200 3203 3203 3205 3206 3206 3204 3205 3205
3120 3122 3124 3125 3128 3130 3133 3136 3136 3138 3136 3137 3139 3142 3147 3147 3151 3154 3160 3166 3171 3175 3181 3185 3184 3185 3184 3188 3190 3187 3188 3189 3194 3197 3198 3198 3199 3201 3203 3205 3206 3206 3206 3207 3208
3110 3114 3117 3119 3122 3124 3127 3128 3132 3133 3131 3131 3131 3133 3139 3143 3146 3151 3154 3161 3167 3172 3175 3177 3181 3182 3184 3185 3189 3187 3186 3189 3193 3196 3196 3196 3197 3200 3203 3205 3207 3207 3207 3208 3209
3101 3104 3109 3112 3116 3119 3120 3123 3127 3130 3129 3125 3123 3125 3132 3139 3140 3147 3150 3159 3164 3167 3172 3175 3178 3180 3182 3185 3188 3184 3187 3190 3193 3194 3189 3194 3194 3196 3199 3203 3205 3207 3208 3209 3209
3090 3095 3100 3103 3107 3111 3111 3119 3123 3129 3126 3113 3115 3120 3124 3128 3136 3137 3146 3154 3158 3162 3170 3169 3173 3176 3179 3184 3186 3186 3186 3190 3192 3193 3190 3189 3189 3189 3195 3200 3202 3205 3207 3209 3208
3081 3085 3090 3093 3100 3105 3109 3115 3120 3126 3109 3109 3109 3111 3119 3124 3131 3137 3142 3149 3157 3161 3163 3165 3171 3173 3177 3181 3183 3184 3189 3191 3192 3190 3184 3184 3184 3186 3190 3195 3199 3202 3205 3207 3209
3071 3074 3080 3084 3092 3093 3102 3109 3118 3105 3105 3101 3104 3107 3112 3116 3125 3130 3133 3138 3143 3151 3153 3161 3163 3168 3174 3177 3180 3183 3186 3187 3186 3183 3177 3178 3184 3184 3187 3191 3195 3198 3202 3205 3207
3062 3064 3070 3075 3081 3088 3096 3102 3097 3086 3092 3095 3099 3103 3105 3110 3117 3122 3128 3132 3139 3144 3149 3152 3157 3160 3167 3170 3174 3180 3183 3178 3179 3173 3172 3181 3181 3183 3186 3189 3193 3195 3199 3203 3205
3055 3056 3060 3066 3071 3078 3085 3084 3071 3080 3087 3091 3094 3097 3100 3105 3111 3115 3119 3123 3130 3136 3141 3146 3151 3158 3162 3167 3170 3174 3177 3177 3174 3170 3171 3173 3179 3182 3184 3188 3191 3193 3196 3199 3203
3048 3049 3053 3057 3062 3069 3070 3061 3072 3079 3085 3087 3088 3091 3093 3097 3103 3106 3112 3117 3124 3131 3138 3139 3146 3149 3157 3163 3165 3167 3175 3177 3170 3167 3164 3163 3171 3176 3181 3184 3187 3189 3192 3196 3200
3044 3048 3051 3050 3054 3057 3049 3056 3067 3076 3080 3082 3085 3086 3087 3090 3094 3098 3104 3112 3118 3126 3133 3135 3139 3144 3148 3151 3156 3163 3164 3169 3170 3169 3161 3164 3164 3170 3176 3180 3183 3185 3187 3192 3196
3042 3046 3043 3045 3049 3048 3049 3057 3067 3067 3074 3077 3077 3079 3083 3086 3089 3093 3097 3105 3111 3119 3124 3130 3135 3134 3139 3148 3153 3156 3160 3163 3164 3167 3161 3160 3157 3164 3172 3178 3182 3182 3184 3189 3193
3040 3042 3042 3041 3043 3044 3051 3054 3059 3063 3068 3073 3074 3075 3078 3081 3085 3089 3093 3101 3106 3111 3116 3126 3129 3132 3135 3143 3147 3148 3154 3159 3162 3163 3161 3161 3163 3168 3172 3176 3179 3181 3182 3184 3189
3037 3037 3038 3037 3040 3042 3045 3048 3053 3057 3064 3067 3072 3075 3076 3077 3080 3084 3088 3095 3100 3105 3115 3122 3124 3123 3122 3130 3139 3145 3148 3153 3156 3159 3158 3161 3160 3165 3170 3174 3176 3180 3181 3183 3185
3037 3036 3032 3035 3041 3041 3041 3041 3047 3051 3057 3063 3067 3068 3072 3075 3079 3080 3083 3089 3095 3101 3107 3114 3116 3122 3123 3126 3132 3138 3143 3146 3149 3153 3154 3156 3159 3163 3168 3172 3174 3176 3179 3179 3181
3036 3034 3031 3032 3033 3035 3036 3039 3040 3048 3054 3057 3062 3066 3069 3073 3076 3078 3080 3083 3086 3096 3101 3108 3112 3120 3122 3122 3125 3130 3135 3141 3143 3147 3150 3153 3155 3160 3164 3169 3172 3174 3175 3176 3178
3037 3034 3034 3033 3035 3037 3039 3041 3041 3045 3050 3055 3061 3064 3068 3072 3071 3071 3074 3078 3084 3090 3096 3103 3108 3113 3115 3120 3122 3122 3123 3130 3137 3142 3147 3148 3154 3158 3161 3164 3168 3171 3172 3173 3174